Regional Weather Roundup
Issued by NWS Huntsville, AL

Home | Current Version | Previous Version | Text Only | Print | Product List | Glossary On
Versions: 1 2 3 4 5 6 7 8 9 10 11 12 13 14 15 16 17 18 19 20 21 22 23 24 25 26 27 28 29 30 31 32 33 34 35 36 37 38 39 40 41 42 43 44 45 46 47 48 49 50
000
ASUS44 KHUN 080010
RWRHUN

WEATHER ROUNDUP FOR THE TENNESSEE VALLEY
NATIONAL WEATHER SERVICE HUNTSVILLE AL
600 PM CST SUN FEB 07 2016

ALZ001>004-080100-
NORTHWEST ALABAMA

CITY           SKY/WX    TMP DP  RH WIND       PRES   REMARKS
SHOALS AIRPORT CLEAR     48  22  35 SW7       30.02F
6HR MIN TEMP:  47; 6HR MAX TEMP:  59;

SHOALS TVA RES   N/A     50 N/A N/A MISG        N/A
$$

ALZ005>007-016-080100-
NORTH CENTRAL ALABAMA

CITY           SKY/WX    TMP DP  RH WIND       PRES   REMARKS
CULLMAN AG STN   N/A     50 N/A N/A W9          N/A
DECATUR AP     PTCLDY    50  21  32 W7        30.02R
6HR MIN TEMP:  50; 6HR MAX TEMP:  56;

HUNTSVILLE AP  PTCLDY    49  20  31 W9        30.01R
6HR MIN TEMP:  49; 6HR MAX TEMP:  57;

HUN NWS/UAH      N/A     51  16  24 W5          N/A
MERIDIANVILLE  CLEAR     46  16  29 CALM      30.01R
REDSTONE ARSN  PTCLDY    50  20  30 W6        30.00R
VINEMONT AP    FAIR      48  18  29 CALM      30.04R
$$

ALZ008>010-080100-
NORTHEAST ALABAMA

CITY           SKY/WX    TMP DP  RH WIND       PRES   REMARKS
ALBERTVILLE    CLOUDY    48  30  49 SW5       29.99F
FORT PAYNE     CLEAR     43  23  45 CALM      29.99F
SCOTTSBORO AP  CLEAR     45  27  49 CALM      30.00F
SCOTTSBORO HCN   N/A     43 N/A N/A MISG        N/A
VALLEY HEAD      N/A     43 N/A N/A MISG        N/A
$$

TNZ076-096-097-080100-
SOUTHEASTERN MIDDLE TENNESSEE

CITY           SKY/WX    TMP DP  RH WIND       PRES   REMARKS
TULLAHOMA      CLEAR     45  16  31 SW6       29.99S
WINCHESTER     CLEAR     46  23  39 CALM      30.00S
$$

...SURROUNDING SITES...

CITY           SKY/WX    TMP DP  RH WIND       PRES   REMARKS
ATLANTA        PTCLDY    49  21  33 NW7       29.99R
ANNISTON       CLEAR     43  28  55 SW3       30.02F
BIRMINGHAM     PTCLDY    52  22  30 W7        30.05S
CHATTANOOGA    MOCLDY    51  20  29 SW6       29.99F
DALTON         NOT AVBL
GADSDEN        CLEAR     47  25  42 SW3       30.02F
GOLDEN TRNGL   PTCLDY    54  25  32 CALM      30.04F
HALEYVILLE     FAIR      47  21  35 SW5       30.04S
JACKSON TN     PTCLDY    51  28  41 SW12G18   29.98F
MEMPHIS        MOCLDY    53  31  42 SW7       30.01S
NASHVILLE      MOCLDY    52  15  23 SW3       29.96F
OXFORD MS      FAIR      50  30  46 SW7       30.04F
ROME           CLEAR     48  21  34 W5        29.99F
TUPELO         CLEAR     52  23  32 SW6       30.04S
TUSCALOOSA     CLEAR     51  19  28 W3        30.07R
$$

...GULF COAST WEATHER...

CITY           SKY/WX    TMP DP  RH WIND       PRES   REMARKS
GULFPORT       CLEAR     52  28  39 W5        30.14S
PASCAGOULA     CLEAR     49  34  56 SW5       30.14R
MOBILE         CLEAR     51  29  42 SW7       30.12R
GULF SHORES    CLEAR     48  34  59 W8        30.12S
DESTIN         CLEAR     57  30  35 VRB5      30.09R
PANAMA CITY    CLEAR     51  30  44 W2        30.07R
APPALACHICOLA  CLEAR     50  30  46 W6        30.07R
$$




USA.gov is the U.S. government's official web portal to all federal, state and local government web resources and services.